Météo par heure à Shusha

Ce jour, 30 Septembre, Mercredi

Heure Température Précipitation Vent Pression Humidité
00:00 +9°C° 0 mm 0 m/s 661 mmHg 73%
01:00 +9°C° 0 mm 0 m/s 661 mmHg 75%
02:00 +8°C° 0 mm 0 m/s 660 mmHg 77%
03:00 +8°C° 0 mm 0 m/s 660 mmHg 78%
04:00 +8°C° 0 mm 0 m/s 660 mmHg 79%
05:00 +7°C° 0 mm 0 m/s 660 mmHg 80%
06:00 +7°C° 0 mm 0 m/s 659 mmHg 81%
07:00 +10°C° 0 mm 1 m/s 660 mmHg 74%
08:00 +11°C° 0 mm 1 m/s 660 mmHg 68%
09:00 +13°C° 0 mm 1 m/s 661 mmHg 62%
10:00 +14°C° 0 mm 2 m/s 660 mmHg 59%
11:00 +15°C° 0 mm 2 m/s 660 mmHg 56%
12:00 +16°C° 0 mm 3 m/s 660 mmHg 54%
13:00 +16°C° 0 mm 3 m/s 660 mmHg 56%
14:00 +16°C° 0 mm 3 m/s 659 mmHg 57%
15:00 +16°C° 0 mm 3 m/s 659 mmHg 59%
16:00 +15°C° 0 mm 2 m/s 659 mmHg 63%
17:00 +14°C° 0 mm 2 m/s 659 mmHg 67%
18:00 +13°C° 0 mm 1 m/s 659 mmHg 71%
19:00 +13°C° 0 mm 1 m/s 659 mmHg 73%
20:00 +12°C° 0 mm 1 m/s 659 mmHg 76%
21:00 +12°C° 0 mm 1 m/s 659 mmHg 78%
22:00 +12°C° 0 mm 1 m/s 659 mmHg 80%
23:00 +12°C° 0 mm 1 m/s 660 mmHg 81%

Demain, 1 Octobre, Jeudi

Heure Température Précipitation Vent Pression Humidité
00:00 +11°C° 0 mm 0 m/s 660 mmHg 83%
01:00 +10°C° 0 mm 0 m/s 660 mmHg 84%
02:00 +10°C° 0 mm 0 m/s 659 mmHg 84%
03:00 +10°C° 0 mm 0 m/s 659 mmHg 85%
04:00 +10°C° 0 mm 0 m/s 659 mmHg 86%
05:00 +9°C° 0 mm 0 m/s 660 mmHg 88%
06:00 +9°C° 0 mm 0 m/s 660 mmHg 89%
07:00 +11°C° 0 mm 1 m/s 660 mmHg 85%
08:00 +12°C° 0 mm 1 m/s 660 mmHg 80%
09:00 +13°C° 0 mm 2 m/s 661 mmHg 75%
10:00 +14°C° 0 mm 2 m/s 661 mmHg 72%
11:00 +15°C° 0 mm 2 m/s 661 mmHg 69%
12:00 +16°C° 0 mm 2 m/s 660 mmHg 66%
13:00 +16°C° 0 mm 2 m/s 660 mmHg 65%
14:00 +16°C° 0 mm 2 m/s 660 mmHg 65%
15:00 +16°C° 0 mm 2 m/s 659 mmHg 64%
16:00 +16°C° 0 mm 2 m/s 659 mmHg 67%
17:00 +15°C° 0 mm 1 m/s 659 mmHg 70%
18:00 +14°C° 0 mm 1 m/s 659 mmHg 73%
19:00 +14°C° 0 mm 1 m/s 659 mmHg 76%
20:00 +13°C° 0 mm 1 m/s 660 mmHg 78%
21:00 +11°C° 0 mm 0 m/s 660 mmHg 81%
22:00 +11°C° 0 mm 0 m/s 660 mmHg 82%
23:00 +11°C° 0 mm 0 m/s 660 mmHg 83%

Après-demain, 2 Octobre, Vendredi

Heure Température Précipitation Vent Pression Humidité
00:00 +11°C° 0 mm 0 m/s 660 mmHg 84%
01:00 +10°C° 0 mm 0 m/s 660 mmHg 85%
02:00 +10°C° 0 mm 0 m/s 659 mmHg 86%
03:00 +9°C° 0 mm 0 m/s 659 mmHg 87%
04:00 +9°C° 0 mm 0 m/s 659 mmHg 87%
05:00 +9°C° 0 mm 0 m/s 659 mmHg 86%
06:00 +9°C° 0 mm 0 m/s 660 mmHg 86%
07:00 +12°C° 0 mm 1 m/s 660 mmHg 78%
08:00 +14°C° 0 mm 1 m/s 661 mmHg 70%
09:00 +16°C° 0 mm 1 m/s 661 mmHg 62%
10:00 +17°C° 0 mm 2 m/s 661 mmHg 59%
11:00 +18°C° 0 mm 2 m/s 661 mmHg 56%
12:00 +19°C° 0 mm 3 m/s 661 mmHg 53%
13:00 +19°C° 0 mm 3 m/s 661 mmHg 53%
14:00 +19°C° 0 mm 3 m/s 661 mmHg 53%
15:00 +19°C° 0 mm 2 m/s 660 mmHg 53%
16:00 +18°C° 0.1 mm 2 m/s 660 mmHg 59%
17:00 +16°C° 0.1 mm 1 m/s 660 mmHg 65%
18:00 +15°C° 0.1 mm 1 m/s 660 mmHg 71%
19:00 +14°C° 0.1 mm 1 m/s 660 mmHg 73%
20:00 +14°C° 0.1 mm 1 m/s 660 mmHg 76%
21:00 +13°C° 0.1 mm 1 m/s 660 mmHg 78%
22:00 +13°C° 0.2 mm 1 m/s 660 mmHg 81%
23:00 +13°C° 0.2 mm 1 m/s 660 mmHg 84%

3 Octobre, Samedi

Heure Température Précipitation Vent Pression Humidité
00:00 +12°C° 0.2 mm 1 m/s 660 mmHg 87%
01:00 +12°C° 0 mm 1 m/s 660 mmHg 87%
02:00 +12°C° 0 mm 1 m/s 660 mmHg 87%
03:00 +12°C° 0 mm 1 m/s 660 mmHg 86%
04:00 +10°C° 0 mm 0 m/s 660 mmHg 86%
05:00 +10°C° 0 mm 0 m/s 660 mmHg 86%
06:00 +10°C° 0 mm 0 m/s 660 mmHg 86%
07:00 +13°C° 0 mm 1 m/s 661 mmHg 81%
08:00 +14°C° 0 mm 1 m/s 662 mmHg 75%
09:00 +16°C° 0 mm 2 m/s 662 mmHg 69%
10:00 +17°C° 0 mm 2 m/s 662 mmHg 66%
11:00 +17°C° 0 mm 2 m/s 662 mmHg 64%
12:00 +18°C° 0 mm 2 m/s 662 mmHg 62%
13:00 +18°C° 0 mm 2 m/s 662 mmHg 62%
14:00 +18°C° 0 mm 2 m/s 662 mmHg 62%
15:00 +18°C° 0 mm 2 m/s 662 mmHg 62%
16:00 +17°C° 0 mm 2 m/s 662 mmHg 65%
17:00 +18°C° 0 mm 1 m/s 662 mmHg 68%
18:00 +16°C° 0 mm 1 m/s 662 mmHg 72%
19:00 +16°C° 0 mm 1 m/s 662 mmHg 73%
20:00 +15°C° 0 mm 1 m/s 663 mmHg 74%
21:00 +15°C° 0 mm 1 m/s 663 mmHg 75%
22:00 +15°C° 0 mm 1 m/s 663 mmHg 77%
23:00 +14°C° 0 mm 1 m/s 663 mmHg 79%

4 Octobre, Dimanche

Heure Température Précipitation Vent Pression Humidité
00:00 +13°C° 0 mm 0 m/s 663 mmHg 82%
01:00 +12°C° 0 mm 0 m/s 663 mmHg 83%
02:00 +12°C° 0 mm 0 m/s 663 mmHg 84%
03:00 +11°C° 0 mm 0 m/s 662 mmHg 85%
04:00 +11°C° 0 mm 0 m/s 662 mmHg 85%
05:00 +11°C° 0 mm 0 m/s 662 mmHg 86%
06:00 +10°C° 0 mm 0 m/s 663 mmHg 86%
07:00 +13°C° 0 mm 1 m/s 663 mmHg 79%
08:00 +14°C° 0 mm 1 m/s 664 mmHg 72%
09:00 +16°C° 0 mm 1 m/s 664 mmHg 65%
10:00 +17°C° 0 mm 2 m/s 664 mmHg 62%
11:00 +18°C° 0 mm 2 m/s 664 mmHg 58%
12:00 +19°C° 0 mm 2 m/s 664 mmHg 55%
13:00 +19°C° 0 mm 2 m/s 663 mmHg 55%
14:00 +19°C° 0 mm 2 m/s 663 mmHg 54%
15:00 +19°C° 0 mm 2 m/s 663 mmHg 54%
16:00 +18°C° 0 mm 2 m/s 663 mmHg 58%
17:00 +16°C° 0 mm 1 m/s 662 mmHg 62%
18:00 +15°C° 0 mm 1 m/s 662 mmHg 66%
19:00 +15°C° 0 mm 1 m/s 662 mmHg 68%
20:00 +14°C° 0 mm 1 m/s 663 mmHg 70%
21:00 +14°C° 0 mm 1 m/s 663 mmHg 72%
22:00 +13°C° 0 mm 1 m/s 663 mmHg 73%
23:00 +13°C° 0 mm 1 m/s 663 mmHg 74%

5 Octobre, Lundi

Heure Température Précipitation Vent Pression Humidité
00:00 +13°C° 0 mm 1 m/s 662 mmHg 75%
01:00 +12°C° 0 mm 1 m/s 662 mmHg 76%
02:00 +12°C° 0 mm 1 m/s 662 mmHg 77%
03:00 +12°C° 0 mm 1 m/s 662 mmHg 77%
04:00 +12°C° 0 mm 1 m/s 662 mmHg 78%
05:00 +12°C° 0 mm 1 m/s 662 mmHg 78%
06:00 +11°C° 0 mm 1 m/s 662 mmHg 78%
07:00 +13°C° 0 mm 1 m/s 662 mmHg 71%
08:00 +15°C° 0 mm 1 m/s 663 mmHg 64%
09:00 +18°C° 0 mm 1 m/s 663 mmHg 56%
10:00 +18°C° 0 mm 2 m/s 663 mmHg 53%
11:00 +19°C° 0 mm 2 m/s 663 mmHg 50%
12:00 +20°C° 0 mm 3 m/s 663 mmHg 46%
13:00 +20°C° 0 mm 3 m/s 663 mmHg 46%
14:00 +20°C° 0 mm 2 m/s 663 mmHg 45%
15:00 +20°C° 0 mm 2 m/s 662 mmHg 45%
16:00 +19°C° 0 mm 2 m/s 662 mmHg 49%
17:00 +18°C° 0 mm 1 m/s 661 mmHg 53%
18:00 +15°C° 0 mm 1 m/s 661 mmHg 57%
19:00 +15°C° 0 mm 1 m/s 661 mmHg 58%
20:00 +15°C° 0 mm 1 m/s 662 mmHg 59%
21:00 +14°C° 0 mm 1 m/s 662 mmHg 61%
22:00 +14°C° 0 mm 1 m/s 662 mmHg 62%
23:00 +13°C° 0 mm 1 m/s 662 mmHg 64%
Voir plus